Date String (YYYY-MM-DD hh:mm:ss) UTC,Instrument flags,Ambient pressure (hPa),Sample flow (lpm),Bypass flow (lpm),Sample temperature (°C),Ambient temperature (°C),ASC tube jacket temperature (°C),LED temperature (°C),Box temperature (°C),Sample RH (%),Span deviation,Mass concentration (μg/m³),Mass concentration (μg/m³),Mass concentration (μg/m³)
DateTimeUTC,F1_M11,P_M11,Q1_M11,Q2_M11,T1_M11,T2_M11,T3_M11,T4_M11,T5_M11,U1_M11,ZSPAN_M11,X0_M11,X2_M11,X1_M11
2022-03-13 12:00:00,,0821.9,5.00,0.00,22.5,22.0,00.0,31.5,24.3,10.7,0000.0,0003.89,0002.08,0001.57
2022-03-13 12:01:00,,0821.8,5.00,0.00,22.5,22.0,00.0,31.5,24.3,10.6,0000.0,0003.70,0002.06,0001.56
2022-03-13 12:02:00,,0821.9,5.01,0.00,22.5,21.9,00.0,31.5,24.3,10.6,0000.0,0003.38,0002.10,0001.57
2022-03-13 12:03:00,,0821.9,5.01,0.00,22.5,21.9,00.0,31.5,24.2,10.6,0000.0,0003.44,0002.13,0001.59
2022-03-13 12:04:00,,0821.8,5.00,0.00,22.5,21.8,00.0,31.5,24.2,10.6,0000.0,0003.58,0002.14,0001.59
2022-03-13 12:05:00,,0821.8,4.99,0.00,22.5,21.8,00.0,31.5,24.3,10.6,0000.0,0003.54,0002.14,0001.59
2022-03-13 12:06:00,,0821.8,5.01,0.00,22.5,21.8,00.0,31.5,24.2,10.5,0000.0,0003.53,0002.15,0001.59
2022-03-13 12:07:00,,0821.8,4.99,0.00,22.5,21.8,00.0,31.5,24.3,10.3,0000.0,0003.44,0002.09,0001.56
2022-03-13 12:08:00,,0821.7,5.00,0.00,22.5,21.8,00.0,31.5,24.2,10.3,0000.0,0003.28,0002.00,0001.49
2022-03-13 12:09:00,,0821.6,5.02,0.00,22.5,21.8,00.0,31.5,24.3,09.9,0000.0,0003.21,0001.91,0001.41
2022-03-13 12:10:00,,0821.7,4.99,0.00,22.5,21.7,00.0,31.5,24.2,10.0,0000.0,0003.03,0001.80,0001.34
2022-03-13 12:11:00,,0821.7,4.99,0.00,22.4,21.7,00.0,31.5,24.2,09.9,0000.0,0002.88,0001.70,0001.26
2022-03-13 12:12:00,,0821.7,4.99,0.00,22.4,21.7,00.0,31.5,24.1,10.0,0000.0,0002.79,0001.58,0001.17
2022-03-13 12:13:00,,0821.7,5.02,0.00,22.4,21.7,00.0,31.4,24.1,10.1,0000.0,0002.75,0001.45,0001.10
2022-03-13 12:14:00,,0821.7,4.99,0.00,22.4,21.7,00.0,31.4,24.1,10.1,0000.0,0002.65,0001.37,0001.02
2022-03-13 12:15:00,,0821.7,5.00,0.00,22.4,21.7,00.0,31.4,24.1,10.2,0000.0,0002.45,0001.30,0000.95
2022-03-13 12:16:00,,0821.6,5.01,0.00,22.4,21.7,00.0,31.4,24.1,10.2,0000.0,0002.21,0001.19,0000.86
2022-03-13 12:17:00,,0821.7,5.01,0.00,22.4,21.6,00.0,31.4,24.1,10.1,0000.0,0002.08,0001.10,0000.80
2022-03-13 12:18:00,,0821.7,4.99,0.00,22.4,21.6,00.0,31.4,24.1,10.3,0000.0,0001.95,0001.06,0000.77
2022-03-13 12:19:00,,0821.7,5.00,0.00,22.4,21.6,00.0,31.4,24.1,10.3,0000.0,0001.98,0001.07,0000.75
2022-03-13 12:20:00,,0821.7,5.00,0.00,22.4,21.6,00.0,31.4,24.1,10.4,0000.0,0001.90,0001.05,0000.76
2022-03-13 12:21:00,,0821.7,4.98,0.00,22.3,21.6,00.0,31.4,24.0,10.4,0000.0,0001.87,0001.05,0000.78
2022-03-13 12:22:00,,0821.7,5.01,0.00,22.3,21.6,00.0,31.4,24.0,10.2,0000.0,0001.96,0001.09,0000.81
2022-03-13 12:23:00,,0821.6,5.01,0.00,22.3,21.5,00.0,31.4,24.0,10.1,0000.0,0001.99,0001.13,0000.83
2022-03-13 12:24:00,,0821.7,4.99,0.00,22.3,21.5,00.0,31.4,24.0,10.1,0000.0,0001.80,0001.15,0000.84
2022-03-13 12:25:00,,0821.7,5.00,0.00,22.3,21.5,00.0,31.4,24.0,10.2,0000.0,0001.85,0001.15,0000.85
2022-03-13 12:26:00,,0821.6,5.01,0.00,22.3,21.5,00.0,31.4,24.0,10.4,0000.0,0001.85,0001.15,0000.87
2022-03-13 12:27:00,,0821.7,4.99,0.00,22.3,21.5,00.0,31.4,23.9,10.3,0000.0,0001.87,0001.18,0000.89
2022-03-13 12:28:00,,0821.7,4.99,0.00,22.3,21.5,00.0,31.4,23.9,10.1,0000.0,0001.86,0001.18,0000.88
2022-03-13 12:29:00,,0821.7,5.01,0.00,22.3,21.5,00.0,31.4,24.0,10.1,0000.0,0001.84,0001.17,0000.88
2022-03-13 12:30:00,,0821.7,5.00,0.00,22.3,21.5,00.0,31.3,23.9,10.2,0000.0,0001.80,0001.14,0000.87
2022-03-13 12:31:00,,0821.7,4.99,0.00,22.3,21.9,00.0,31.4,24.1,10.0,0000.0,0001.83,0001.14,0000.86
2022-03-13 12:32:00,,0821.7,5.01,0.00,22.4,22.6,00.0,31.4,24.4,09.9,0000.0,0001.86,0001.13,0000.83
2022-03-13 12:33:00,,0821.7,4.99,0.00,22.6,23.0,00.0,31.4,24.6,09.9,0000.0,0001.71,0001.09,0000.82
2022-03-13 12:34:00,,0821.7,5.01,0.00,22.6,22.9,00.0,31.5,24.6,09.8,0000.0,0001.66,0001.08,0000.81
2022-03-13 12:35:00,,0821.8,4.99,0.00,22.6,22.8,00.0,31.5,24.6,09.9,0000.0,0001.66,0001.09,0000.81
2022-03-13 12:36:00,,0821.7,4.99,0.00,22.6,22.6,00.0,31.5,24.5,09.8,0000.0,0001.66,0001.12,0000.82
2022-03-13 12:37:00,,0821.7,5.01,0.00,22.6,22.5,00.0,31.5,24.5,09.8,0000.0,0001.61,0001.09,0000.80
2022-03-13 12:38:00,,0821.7,5.00,0.00,22.6,22.3,00.0,31.5,24.5,09.8,0000.0,0001.65,0001.09,0000.79
2022-03-13 12:39:00,,0821.8,5.01,0.00,22.6,22.2,00.0,31.5,24.4,09.9,0000.0,0001.67,0001.10,0000.78
2022-03-13 12:40:00,,0821.8,4.99,0.00,22.6,22.2,00.0,31.5,24.4,10.0,0000.0,0001.71,0001.11,0000.78
2022-03-13 12:41:00,,0821.8,4.99,0.00,22.6,22.1,00.0,31.5,24.3,10.1,0000.0,0001.75,0001.13,0000.79
2022-03-13 12:42:00,,0821.9,5.01,0.00,22.6,22.0,00.0,31.5,24.3,10.1,0000.0,0001.73,0001.12,0000.79
2022-03-13 12:43:00,,0821.9,5.00,0.00,22.6,22.0,00.0,31.5,24.3,10.2,0000.0,0001.67,0001.10,0000.79
2022-03-13 12:44:00,,0821.8,5.00,0.00,22.5,21.9,00.0,31.5,24.3,10.3,0000.0,0001.81,0001.12,0000.80
2022-03-13 12:45:00,,0821.8,5.00,0.00,22.5,21.8,00.0,31.5,24.2,10.2,0000.0,0001.83,0001.13,0000.84
2022-03-13 12:46:00,,0821.8,5.02,0.00,22.4,21.7,00.0,31.5,24.1,10.4,0000.0,0001.90,0001.18,0000.88
2022-03-13 12:47:00,,0821.7,5.00,0.00,22.4,21.7,00.0,31.5,24.1,10.3,0000.0,0002.46,0001.24,0000.94
2022-03-13 12:48:00,,0821.7,4.99,0.00,22.4,21.6,00.0,31.5,24.1,09.8,0000.0,0002.65,0001.28,0000.95
2022-03-13 12:49:00,,0821.7,5.00,0.00,22.4,21.6,00.0,31.5,24.1,09.9,0000.0,0002.58,0001.25,0000.95
2022-03-13 12:50:00,,0821.7,5.00,0.00,22.3,21.6,00.0,31.5,24.0,09.8,0000.0,0002.62,0001.26,0000.96
2022-03-13 12:51:00,,0821.8,4.99,0.00,22.3,21.5,00.0,31.4,24.0,09.8,0000.0,0002.71,0001.29,0000.96
2022-03-13 12:52:00,,0821.8,4.99,0.00,22.3,21.5,00.0,31.4,24.0,10.2,0000.0,0002.80,0001.34,0000.98
2022-03-13 12:53:00,,0821.8,5.01,0.00,22.3,21.5,00.0,31.4,24.0,10.2,0000.0,0002.91,0001.39,0001.00
2022-03-13 12:54:00,,0821.8,5.01,0.00,22.3,21.5,00.0,31.4,24.0,10.2,0000.0,0003.24,0001.45,0001.04
2022-03-13 12:55:00,,0821.8,5.00,0.00,22.3,21.5,00.0,31.4,24.0,10.2,0000.0,0003.21,0001.48,0001.05
2022-03-13 12:56:00,,0821.7,4.99,0.00,22.3,21.5,00.0,31.4,24.0,10.1,0000.0,0003.24,0001.49,0001.04
2022-03-13 12:57:00,,0821.7,5.00,0.00,22.3,21.5,00.0,31.4,24.0,10.1,0000.0,0003.13,0001.44,0000.99
2022-03-13 12:58:00,,0821.7,5.01,0.00,22.3,21.5,00.0,31.4,24.0,10.0,0000.0,0002.61,0001.39,0000.93
2022-03-13 12:59:00,,0821.7,5.00,0.00,22.3,21.5,00.0,31.3,24.0,09.9,0000.0,0002.46,0001.37,0000.91
